User: anonymous   Login
Location: Fort Wayne
(41.1310°N, 85.1290°W)
Time: 10:52:14
(UTC-05:00)
Language:

Cosmos 2056 Rocket - Orbit

View from above orbital plane
View from above orbital plane
View from above satellite
View from above satellite

Ground track
Ground track

The orbit data is extracted from the following two-line orbital elements,

1 20433U 90004B   16039.54983477  .00000128  00000-0  52570-4 0  9995
2 20433  74.0355 184.1581 0039950  73.5102 354.6102 14.35910489364200
Epoch (UTC): 08 February 2016 13:11:45
Eccentricity: 0.0039950
inclination: 74.0355°
perigee height: 743 km
apogee height: 800 km
right ascension of ascending node: 184.1581°
argument of perigee: 73.5102°
revolutions per day: 14.35910489
mean anomaly at epoch: 354.6102°
orbit number at epoch: 36420

The dashed part of the orbit path shows where the satellite is in the earth's shadow,  

DLR